Regional Weather Roundup
Issued by NWS

Home | Current Version | Previous Version | Text Only | Print | Product List | Glossary On
Versions: 1 2 3 4 5 6 7 8 9 10 11 12 13 14 15 16 17 18 19 20 21 22 23 24 25 26 27 28 29 30 31 32 33 34 35 36 37 38 39 40 41 42 43 44 45 46 47 48 49 50
000
ASUS42 KFFC 212110
RWRGA
WEATHER ROUNDUP FOR GEORGIA
NATIONAL WEATHER SERVICE PEACHTREE CITY GA
500 PM EDT MON AUG 21 2017

NOTE: "FAIR" INDICATES FEW OR NO CLOUDS BELOW 12,000 FEET WITH NO
SIGNIFICANT WEATHER AND/OR OBSTRUCTIONS TO VISIBILITY.

* = USE WITH CAUTION. THE STATIONS MARKED WITH AN ASTERISK MAY NOT
REPORT WEATHER SUCH AS PRECIPITATION, FOG, OR THUNDER AND ARE NOT
QUALITY CONTROLLED BY NWS.

THE REMARK "TC" DENOTES TEMPERATURE READING IN DEGREES CELSIUS.

GAZ001>058-212200-
NORTH GEORGIA

CITY           SKY/WX    TMP DP  RH WIND       PRES   REMARKS
ATLANTA        MOSUNNY   91  69  48 E9        30.15S HX  96
ATHENS         SUNNY     91  72  53 VRB5      30.14F HX  98
CHAMBLEE       MOSUNNY   90  69  50 VRB3      30.15S HX  94
PEACHTREE CITY PTSUNNY   91  71  51 VRB6      30.14S HX  97
ROME           MOSUNNY   93  71  48 SE6       30.12S HX 100
WEST ATLANTA   PTSUNNY   91  72  53 SE7       30.13F HX  98
GAINESVILLE    MOSUNNY   90  70  51 SE6       30.19S HX  95
CARTERSVILLE   MOSUNNY   89  70  53 S5        30.14S HX  94


CITY           SKY/WX    TMP DP  RH WIND       PRES   REMARKS
LAWRENCEVILLE* MOSUNNY   90  73  58 E6        30.17F HX  98
MARIETTA       MOSUNNY   90  66  45 SE9       30.14F HX  92
KENNESAW*      MOSUNNY   93  66  40 E6        30.18S HX  96
CANTON*        SUNNY     91  70  49 E8        30.17F HX  97
$$

GAZ059>098-102>109-212200-
CENTRAL GEORGIA

CITY           SKY/WX    TMP DP  RH WIND       PRES   REMARKS
AUGUSTA-BUSH   MOSUNNY   91  74  57 SE12      30.13R HX 100
AUGUSTA-DANIEL SUNNY     92  69  47 SE10      30.14S HX  97
COLUMBUS       MOSUNNY   92  71  50 SE8       30.10S HX  98
MACON          MOSUNNY   89  71  55 E7        30.12S HX  95
ROBINS AFB     MOSUNNY   91  72  52 S3        30.11F HX  98


CITY           SKY/WX    TMP DP  RH WIND       PRES   REMARKS
LAGRANGE*      SUNNY     89  73  59 CALM      30.13F HX  96
SYLVANIA*      CLOUDY    83  77  82 CALM      30.18R HX  91
MILLEDGEVILLE* MOSUNNY   90  72  55 CALM      30.13R HX  96
$$

GAZ099>101-110>166-212200-
SOUTH GEORGIA

CITY           SKY/WX    TMP DP  RH WIND       PRES   REMARKS
SAVANNAH       LGT RAIN  79  76  90 VRB3      30.16R
VALDOSTA       CLOUDY    86  72  62 NE10      30.11R HX  92
ALMA           CLOUDY    86  74  67 VRB5      30.14R HX  94
ST SIMONS      CLOUDY    84  77  79 NE10      30.14R HX  94
FT STEWART     CLOUDY    80  74  80 SE6       30.14R
ALBANY         PTSUNNY   90  73  57 NE7       30.12S HX  98
HUNTER AFB     CLOUDY    79  75  89 CALM      30.12F
MOODY AFB      MOSUNNY   82  75  78 E3        30.11F
BRUNSWICK      CLOUDY    81  72  74 NE10      30.16R


CITY           SKY/WX    TMP DP  RH WIND       PRES   REMARKS
BAINBRIDGE*    CLOUDY    91  77  62 SE7       30.09F HX 105
MOULTRIE*      SUNNY     91  70  49 SE6       30.12S HX  97
VIDALIA*       CLOUDY    79  75  89 SE3       30.16R
WAYCROSS*      CLOUDY    86  72  62 SE8       30.14R HX  92
DOUGLAS*       PTSUNNY   82  72  69 SE7       30.15S
$$



USA.gov is the U.S. government's official web portal to all federal, state and local government web resources and services.